Wind_Speed
9 11 14 15 14 14 15 13 10 6 8 11 14 20 26 25 24 25 24 23 21 19 18 19 20 20 20 20 21 21 21 21 21 21 21 22 22 22 22 22 22 22 23 23 23 23 23 23 24
12 16 18 16 11 11 12 10 6 7 11 14 17 22 24 23 23 23 21 19 17 16 17 18 18 18 17 17 17 18 18 19 18 19 20 21 22 23 23 23 23 24 24 24 25 25 26 26 28
14 17 17 14 10 8 5 5 3 8 15 19 21 22 23 21 18 17 16 15 14 14 15 15 15 15 15 15 15 16 16 16 16 17 19 21 22 23 24 25 25 26 27 28 29 29 30 31 32
15 17 16 13 11 8 4 6 10 14 18 20 21 20 17 14 12 13 13 12 12 12 13 13 14 14 14 14 15 15 14 14 15 16 18 20 22 24 25 27 28 29 31 32 33 33 34 35 37
17 18 16 13 11 6 4 10 17 21 18 17 15 13 12 13 12 12 12 12 12 12 13 14 14 14 14 14 14 14 14 14 14 15 16 18 20 23 25 26 28 29 31 32 33 34 35 37 38
18 17 15 12 8 3 8 14 18 18 16 12 11 12 14 15 13 12 13 13 14 14 14 14 13 13 13 14 14 14 15 15 15 15 16 16 17 19 21 23 24 25 27 27 28 29 30 29 29
18 16 12 8 3 3 10 16 18 17 15 12 12 14 15 15 14 14 14 14 15 17 17 15 13 12 12 12 13 15 16 16 16 17 17 17 17 18 19 20 21 21 22 23 23 24 25 25 26
17 13 10 6 3 2 10 16 18 19 17 15 14 15 16 16 16 16 13 15 18 18 17 14 12 12 12 12 13 15 17 18 18 18 19 19 19 19 20 20 21 21 22 22 23 24 24 24 25
17 15 13 10 7 4 11 17 19 19 19 18 18 18 19 20 19 18 16 19 20 18 17 15 13 13 14 14 15 16 19 20 21 21 21 22 22 22 22 22 23 24 24 25 25 26 26 26 26
17 18 14 10 7 8 13 17 18 19 20 20 21 22 24 24 23 22 22 22 20 17 16 17 17 16 15 16 17 19 21 23 23 23 23 24 24 25 25 25 26 26 27 27 27 28 29 29 29
17 18 14 10 9 11 15 16 17 19 19 21 23 24 26 26 25 24 23 20 18 17 19 21 20 17 16 16 19 21 22 23 23 23 23 24 25 26 27 27 28 28 29 29 29 29 30 31 31
19 19 16 13 15 18 19 20 20 20 20 21 23 25 26 25 23 23 22 20 18 19 21 21 20 16 13 14 17 19 20 21 22 23 24 26 27 29 30 31 31 30 30 32 33 32 32 33 33
22 22 19 16 17 22 24 25 25 24 23 23 23 25 26 25 24 24 24 24 22 21 22 22 19 16 13 14 16 18 21 23 25 26 28 29 31 32 32 33 32 32 33 34 35 36 36 36 37
24 24 21 18 18 21 25 27 26 25 24 24 24 26 27 26 26 26 26 26 26 25 24 21 20 23 20 18 20 21 23 24 26 28 29 31 32 34 34 35 35 35 35 36 38 39 41 42 43
24 23 20 17 16 17 20 21 22 23 25 25 25 27 27 27 28 28 28 29 31 29 27 25 29 28 26 26 25 25 26 26 27 30 31 32 34 36 38 39 40 40 41 41 41 43 45 47 47
24 22 17 14 12 12 16 15 14 18 22 24 25 27 28 29 29 30 31 32 32 32 33 35 34 36 34 32 30 32 31 30 31 33 34 34 36 38 39 41 43 44 45 46 47 48 49 50 51
23 20 13 10 8 9 13 14 14 17 21 24 26 28 31 32 33 33 34 33 34 35 35 37 38 39 37 35 34 34 33 33 34 35 36 37 38 40 41 42 44 45 46 47 49 50 51 53 55
21 20 16 14 12 13 16 19 19 22 24 26 28 30 32 34 35 35 34 34 34 34 36 39 40 39 38 37 36 35 35 35 36 37 37 38 40 41 42 43 44 46 48 50 52 53 55 58 60
25 24 22 20 16 15 17 21 23 26 28 30 31 33 34 34 34 33 33 33 34 35 37 39 39 39 39 39 38 38 38 38 39 40 40 41 42 43 45 46 48 51 53 55 56 59 62 64 67
26 26 24 23 18 16 17 17 21 27 31 33 34 35 35 33 32 31 32 33 34 35 37 38 38 39 39 39 39 40 40 41 42 43 43 44 46 47 49 51 53 55 58 61 63 66 68 71 72
26 25 25 25 23 21 21 21 23 29 33 35 37 36 33 30 29 30 32 32 33 34 36 37 37 38 39 40 41 42 43 44 44 45 47 48 50 52 54 56 57 60 62 64 66 67 69 70 72
25 21 23 26 28 27 27 28 29 33 36 37 37 33 30 29 30 32 33 32 33 34 35 35 37 39 40 42 43 45 46 47 48 50 51 53 55 57 59 60 62 64 65 66 66 65 65 65 66
24 21 23 26 29 31 33 35 35 38 39 38 35 32 31 32 33 34 34 33 33 34 35 36 38 40 43 45 47 48 50 51 53 55 56 58 60 61 63 64 65 65 65 63 62 61 60 59 58
23 23 26 30 33 35 32 37 41 41 40 38 36 35 34 35 36 37 36 35 36 37 38 38 40 43 46 48 50 52 53 55 56 58 59 61 62 64 64 64 64 63 60 58 56 56 55 54 54
27 28 29 33 35 34 30 36 40 41 42 41 40 39 38 39 40 41 40 40 40 40 41 42 43 46 48 51 53 54 56 57 58 60 61 62 63 64 63 62 60 55 52 51 51 51 51 51 51
27 29 31 32 32 30 30 35 35 36 39 39 39 39 39 40 41 42 43 44 42 43 44 44 46 48 50 53 55 56 57 58 60 61 62 62 63 62 60 56 50 47 46 47 48 48 49 50 51
26 29 30 32 32 31 32 33 34 33 34 35 36 36 35 36 36 38 40 40 42 43 45 46 47 49 52 55 56 57 58 60 61 62 62 62 61 58 52 47 43 43 44 45 47 48 50 51 51
29 28 30 34 35 36 36 36 36 35 34 34 35 35 35 34 34 34 36 38 41 43 45 46 47 50 54 56 58 59 61 62 63 62 61 59 56 50 44 41 41 42 44 46 48 50 51 52 52
29 30 32 34 36 37 36 35 33 37 39 40 40 40 39 38 38 38 38 40 42 44 44 46 49 52 56 58 60 62 63 63 62 60 59 55 48 42 39 39 41 43 46 49 51 52 53 53 53
32 30 30 34 35 36 37 35 33 35 38 41 42 42 42 42 41 41 40 41 43 43 44 47 50 54 58 61 63 64 63 62 61 59 53 46 41 38 38 40 43 46 49 52 53 53 53 53 52
Wind_Direction
162 143 133 136 149 172 192 209 225 245 276 289 296 302 305 298 298 302 303 300 299 298 300 300 298 294 287 280 277 276 277 279 279 276 272 271 270 269 270 271 270 269 268 266 264 263 263 265 266
149 139 137 141 157 186 206 219 231 260 281 287 293 299 300 295 295 297 296 295 298 302 305 305 304 300 294 287 282 278 278 280 280 275 270 267 266 267 268 270 270 270 268 267 266 265 266 266 266
148 145 148 156 180 206 207 207 251 279 286 290 295 300 297 296 296 297 296 298 304 309 313 314 312 307 300 294 289 285 284 282 279 276 271 267 264 264 266 268 268 268 267 266 266 266 267 267 266
153 149 156 168 192 219 268 327 318 296 289 287 291 296 299 308 313 312 309 312 317 322 326 326 322 316 307 299 295 293 292 287 280 276 273 268 266 266 266 267 267 268 268 267 266 266 268 268 268
150 151 159 180 200 219 290 330 317 304 292 288 294 309 324 330 331 329 328 332 334 333 330 327 324 319 314 308 307 306 306 303 296 287 281 275 271 270 271 272 273 272 271 270 269 268 269 270 271
144 152 170 188 212 258 333 326 313 308 304 307 318 329 330 334 336 335 335 343 340 330 322 317 317 317 317 317 317 319 319 317 312 305 300 293 288 288 287 284 282 280 279 278 278 276 274 275 278
145 159 180 187 213 343 327 311 307 310 309 318 332 336 335 338 340 339 338 342 338 329 320 313 309 309 313 317 321 323 325 323 320 316 313 309 305 301 298 296 291 288 285 283 282 281 279 278 278
162 184 190 165 115 336 301 296 302 304 309 326 337 338 335 333 339 341 337 337 332 328 323 317 313 304 308 314 319 321 322 321 320 319 319 316 313 310 306 302 297 292 288 286 284 282 280 279 278
185 194 185 152 132 251 276 282 290 296 308 322 331 331 327 329 329 326 321 323 323 320 316 312 310 305 302 307 310 312 312 312 312 314 314 314 312 311 310 306 303 298 293 288 284 282 280 279 278
194 196 189 175 163 238 260 272 284 292 304 317 319 318 322 324 323 320 319 321 319 317 318 317 305 298 294 296 300 303 305 306 307 308 308 308 308 309 309 309 308 305 300 294 287 282 280 278 277
210 210 215 202 199 236 257 267 279 291 299 307 308 311 315 317 319 321 323 323 319 317 317 317 306 296 292 291 296 301 303 304 304 304 304 304 304 305 306 306 308 308 306 302 295 287 283 280 279
232 237 238 226 214 226 245 258 269 280 290 296 299 303 308 313 320 324 330 328 321 318 316 313 306 302 301 301 302 304 305 304 301 302 302 302 302 303 304 305 305 307 306 303 300 293 287 284 282
242 248 249 241 228 225 234 249 261 271 282 289 294 301 307 315 322 328 333 332 322 317 314 314 315 315 316 314 311 308 306 304 303 304 304 304 303 304 306 307 304 303 303 300 297 293 288 285 283
247 254 261 262 249 235 233 241 254 264 273 282 290 297 304 313 321 330 334 333 327 320 316 316 327 333 328 327 319 315 311 309 308 308 308 307 305 304 304 303 301 299 297 295 292 287 284 282 282
255 262 270 273 261 248 243 244 251 256 262 271 280 288 298 310 319 327 332 333 329 325 324 326 332 337 334 328 324 321 319 316 314 312 310 308 307 305 303 302 301 299 297 295 292 289 287 285 284
258 265 273 272 255 249 253 252 249 249 253 264 274 284 295 306 315 321 326 328 327 326 326 326 330 332 329 325 323 322 319 318 317 315 313 310 308 306 304 302 301 300 298 296 294 292 290 288 286
256 262 259 242 222 234 257 262 251 253 258 266 277 286 293 301 308 314 319 323 323 322 323 322 324 323 322 320 319 318 317 316 316 314 312 309 307 304 303 302 300 299 297 296 295 292 290 289 288
254 253 234 215 211 231 250 257 254 255 262 270 278 287 293 298 301 307 314 317 318 317 317 317 317 317 317 316 316 315 315 315 314 313 311 308 307 306 304 302 301 299 298 297 295 292 292 290 289
245 245 236 223 224 245 256 254 249 252 259 268 278 286 291 293 297 303 308 312 312 313 313 314 314 315 315 314 314 315 316 316 315 313 312 309 307 306 304 301 300 299 298 297 295 293 292 290 289
247 247 239 223 219 243 258 257 251 252 258 267 275 282 287 289 294 299 303 306 309 310 312 314 315 314 313 314 315 316 316 315 314 312 310 308 306 304 302 300 299 299 298 297 295 293 292 291 290
243 244 238 224 216 230 245 248 248 250 256 264 272 279 284 285 288 294 299 302 305 308 312 313 313 313 314 315 316 316 315 313 312 310 308 307 305 304 303 301 300 299 299 297 296 295 294 294 293
234 233 234 230 225 226 235 245 247 251 256 263 270 277 281 283 286 291 294 297 301 306 310 312 313 315 316 316 316 315 314 313 311 309 308 306 305 304 303 303 302 302 301 300 299 298 297 296 295
234 231 237 242 241 235 233 243 247 252 256 262 269 276 280 282 285 288 289 291 296 303 308 311 314 315 316 316 316 315 314 313 311 310 309 308 307 306 305 304 303 302 301 300 300 300 300 299 299
230 236 242 246 249 247 239 241 245 251 258 263 267 272 276 279 282 284 285 286 290 297 303 308 311 313 315 315 315 314 313 313 311 310 309 307 306 306 305 303 302 301 300 300 301 301 301 301 300
227 234 243 247 249 252 247 242 245 250 256 261 265 269 273 276 279 281 280 281 286 292 297 301 306 310 313 314 314 313 313 312 310 309 308 306 305 304 303 302 301 301 301 302 303 303 303 303 302
232 237 245 253 257 258 249 246 246 249 255 261 265 270 275 278 280 281 280 281 284 289 293 298 303 308 311 313 313 313 312 310 309 308 307 305 304 303 301 301 301 302 304 305 307 307 307 306 304
233 237 246 254 258 257 251 249 248 248 252 258 265 271 277 280 282 283 283 283 285 288 292 297 301 306 310 311 312 312 310 310 309 308 307 306 305 303 302 302 303 305 307 309 310 310 310 309 306
231 236 243 248 253 254 255 253 251 252 257 262 268 274 280 282 283 285 284 285 287 289 292 297 301 306 309 311 311 311 311 310 310 309 308 307 305 303 302 303 305 308 310 311 312 312 312 311 308
231 234 239 245 248 251 254 256 257 256 258 263 268 273 278 281 283 285 285 286 286 289 292 297 302 306 309 311 312 312 311 311 311 310 309 307 304 302 303 305 308 310 311 312 313 313 313 312 309
234 239 243 245 248 249 253 256 257 259 262 264 267 271 275 278 281 285 286 284 286 289 294 299 305 308 310 312 312 312 312 311 311 310 308 305 303 303 306 308 310 312 313 313 313 312 312 311 309
Height
5903 5905 5907 5909 5910 5909 5908 5908 5908 5908 5908 5909 5911 5910 5908 5907 5907 5908 5905 5903 5902 5902 5900 5899 5898 5897 5897 5897 5897 5897 5897 5897 5897 5896 5896 5896 5896 5896 5896 5896 5895 5895 5894 5894 5894 5893 5893 5892 5892
5903 5905 5907 5908 5908 5907 5908 5908 5908 5907 5907 5908 5909 5909 5907 5905 5904 5902 5900 5899 5899 5898 5896 5895 5894 5893 5893 5893 5893 5894 5894 5894 5893 5893 5892 5892 5892 5892 5892 5892 5892 5892 5891 5891 5890 5889 5889 5888 5887
5903 5904 5907 5907 5906 5906 5907 5907 5907 5907 5906 5906 5907 5906 5905 5903 5901 5899 5897 5895 5895 5894 5893 5892 5891 5890 5890 5890 5890 5890 5890 5890 5889 5889 5889 5889 5889 5889 5889 5889 5888 5888 5888 5887 5886 5885 5884 5883 5882
5902 5904 5906 5906 5904 5904 5904 5903 5904 5906 5906 5906 5906 5905 5902 5900 5898 5896 5893 5892 5892 5891 5890 5890 5889 5889 5888 5887 5887 5887 5887 5886 5886 5886 5885 5885 5885 5885 5885 5884 5884 5883 5883 5882 5881 5881 5880 5878 5877
5902 5904 5905 5904 5903 5902 5901 5901 5903 5904 5904 5905 5905 5903 5900 5898 5896 5893 5891 5890 5889 5889 5888 5888 5887 5887 5886 5885 5885 5884 5884 5884 5883 5883 5882 5882 5882 5881 5881 5880 5879 5878 5877 5876 5876 5875 5874 5873 5871
5902 5903 5904 5903 5903 5901 5900 5900 5902 5901 5901 5902 5902 5900 5897 5896 5895 5893 5890 5889 5889 5888 5887 5886 5885 5885 5884 5884 5883 5882 5881 5881 5881 5880 5880 5879 5879 5878 5877 5876 5875 5874 5872 5871 5870 5869 5868 5866 5864
5903 5903 5903 5902 5901 5899 5900 5901 5901 5899 5898 5899 5899 5897 5895 5894 5893 5891 5889 5888 5888 5887 5886 5885 5884 5883 5882 5882 5881 5880 5879 5879 5878 5878 5877 5876 5875 5874 5873 5872 5870 5869 5867 5866 5865 5863 5862 5860 5858
5901 5903 5901 5901 5900 5900 5901 5901 5899 5896 5895 5896 5896 5894 5892 5892 5892 5891 5889 5887 5886 5885 5884 5883 5882 5882 5881 5879 5878 5878 5877 5876 5875 5875 5874 5873 5871 5870 5869 5867 5866 5864 5863 5861 5860 5858 5856 5855 5853
5900 5901 5899 5899 5900 5901 5901 5900 5898 5895 5893 5893 5892 5891 5889 5889 5890 5890 5888 5886 5884 5883 5881 5880 5880 5879 5878 5877 5876 5875 5873 5872 5871 5870 5869 5868 5867 5865 5864 5863 5861 5860 5858 5856 5854 5852 5850 5849 5847
5898 5898 5898 5897 5898 5900 5899 5898 5896 5893 5892 5891 5890 5888 5886 5886 5886 5886 5885 5883 5881 5880 5878 5878 5878 5876 5875 5874 5873 5871 5870 5868 5867 5866 5864 5863 5861 5860 5858 5857 5856 5854 5852 5851 5848 5846 5844 5842 5840
5895 5896 5895 5894 5896 5898 5897 5895 5893 5891 5891 5890 5888 5886 5884 5882 5882 5882 5881 5880 5879 5877 5875 5874 5874 5873 5872 5871 5870 5868 5866 5864 5862 5861 5860 5858 5856 5855 5853 5851 5849 5847 5846 5844 5842 5840 5837 5835 5834
5894 5893 5893 5892 5894 5895 5895 5893 5892 5890 5890 5889 5887 5884 5882 5880 5879 5877 5877 5877 5876 5874 5872 5871 5870 5869 5868 5867 5866 5864 5863 5861 5859 5857 5855 5853 5851 5849 5847 5844 5842 5840 5838 5836 5834 5832 5830 5828 5826
5890 5890 5890 5889 5889 5891 5892 5891 5889 5888 5887 5886 5884 5882 5879 5877 5875 5874 5874 5873 5871 5869 5867 5867 5866 5864 5864 5863 5862 5861 5859 5857 5854 5852 5849 5847 5845 5843 5840 5838 5835 5833 5831 5828 5826 5825 5822 5820 5818
5886 5886 5887 5887 5886 5886 5887 5888 5887 5886 5884 5883 5881 5879 5877 5875 5873 5872 5872 5870 5868 5865 5861 5861 5860 5860 5859 5858 5858 5856 5854 5851 5848 5845 5843 5840 5838 5836 5834 5831 5829 5826 5824 5821 5818 5816 5814 5811 5809
5882 5883 5884 5884 5883 5883 5884 5885 5885 5884 5881 5879 5877 5875 5874 5872 5871 5870 5869 5867 5865 5862 5858 5856 5855 5854 5853 5853 5851 5849 5847 5845 5842 5838 5835 5833 5830 5827 5824 5822 5819 5816 5814 5811 5808 5805 5802 5800 5797
5879 5880 5881 5881 5880 5880 5882 5882 5882 5879 5877 5875 5873 5872 5871 5870 5868 5867 5866 5864 5862 5859 5856 5853 5851 5850 5848 5847 5845 5843 5840 5837 5834 5831 5828 5825 5821 5818 5815 5812 5809 5805 5802 5799 5796 5793 5789 5786 5784
5874 5876 5877 5877 5876 5877 5877 5877 5877 5875 5873 5871 5870 5868 5867 5867 5865 5864 5862 5861 5859 5856 5854 5851 5849 5847 5846 5844 5841 5838 5835 5832 5828 5825 5821 5817 5814 5810 5807 5803 5800 5796 5792 5789 5785 5781 5778 5774 5771
5869 5870 5871 5872 5871 5871 5870 5871 5871 5870 5869 5868 5867 5866 5865 5864 5862 5861 5859 5858 5856 5853 5850 5848 5846 5843 5841 5839 5836 5832 5829 5825 5822 5818 5814 5810 5806 5802 5798 5794 5790 5786 5782 5778 5774 5770 5765 5761 5757
5862 5862 5865 5867 5866 5864 5864 5864 5864 5864 5864 5864 5864 5864 5864 5862 5860 5859 5857 5855 5852 5849 5847 5844 5841 5838 5835 5832 5829 5825 5821 5817 5813 5809 5805 5801 5797 5793 5789 5785 5781 5776 5771 5766 5761 5756 5751 5746 5740
5855 5856 5858 5861 5861 5860 5859 5859 5859 5860 5860 5860 5861 5861 5860 5859 5858 5855 5853 5851 5848 5845 5842 5839 5835 5832 5829 5825 5822 5817 5813 5808 5804 5800 5796 5792 5788 5784 5779 5774 5769 5764 5758 5752 5746 5741 5735 5728 5721
5847 5850 5852 5854 5855 5855 5856 5856 5855 5855 5855 5855 5856 5856 5856 5855 5853 5851 5849 5847 5844 5841 5837 5833 5830 5826 5822 5818 5814 5809 5805 5801 5797 5792 5788 5783 5777 5772 5767 5761 5755 5749 5743 5736 5729 5722 5716 5709 5702
5840 5844 5845 5846 5848 5850 5851 5850 5850 5848 5848 5849 5850 5851 5851 5849 5848 5847 5845 5842 5839 5836 5832 5828 5823 5819 5815 5810 5806 5802 5797 5793 5788 5783 5777 5771 5765 5759 5753 5747 5740 5733 5726 5719 5711 5704 5697 5691 5684
5833 5837 5838 5839 5840 5842 5844 5844 5843 5840 5841 5843 5844 5844 5844 5843 5842 5841 5839 5837 5834 5830 5826 5821 5816 5811 5806 5802 5797 5793 5788 5783 5777 5771 5765 5759 5752 5745 5739 5732 5724 5717 5710 5703 5695 5688 5681 5674 5667
5827 5830 5831 5832 5832 5833 5838 5838 5835 5833 5835 5836 5837 5837 5837 5836 5836 5834 5833 5830 5827 5823 5819 5814 5808 5804 5799 5794 5790 5784 5779 5773 5767 5760 5753 5746 5739 5732 5725 5718 5710 5703 5695 5688 5681 5674 5668 5661 5654
5820 5822 5823 5824 5824 5825 5831 5829 5828 5828 5828 5829 5830 5830 5830 5829 5829 5827 5825 5822 5819 5816 5812 5807 5802 5797 5792 5787 5782 5776 5770 5764 5757 5750 5743 5735 5728 5720 5712 5705 5697 5689 5683 5676 5669 5662 5656 5649 5642
5814 5815 5816 5817 5817 5819 5821 5820 5821 5821 5821 5821 5822 5822 5822 5822 5821 5819 5816 5813 5811 5808 5804 5799 5794 5790 5785 5779 5774 5768 5761 5754 5747 5739 5732 5724 5716 5708 5700 5692 5684 5678 5671 5665 5658 5651 5644 5637 5630
5806 5807 5810 5811 5810 5811 5811 5812 5812 5813 5814 5814 5814 5814 5815 5814 5812 5810 5808 5806 5803 5800 5796 5791 5787 5782 5777 5771 5765 5758 5751 5744 5735 5727 5719 5711 5702 5694 5687 5680 5674 5668 5661 5654 5647 5640 5633 5625 5618
5798 5801 5803 5802 5803 5803 5803 5803 5805 5807 5807 5808 5807 5807 5806 5806 5804 5803 5801 5798 5795 5791 5787 5783 5778 5774 5768 5762 5755 5748 5740 5732 5723 5714 5706 5697 5689 5682 5676 5670 5664 5658 5651 5644 5636 5629 5621 5613 5605
5792 5794 5794 5795 5795 5796 5795 5798 5799 5799 5800 5800 5799 5799 5799 5798 5797 5795 5792 5790 5786 5782 5777 5773 5769 5764 5758 5751 5743 5736 5727 5719 5710 5702 5694 5685 5678 5672 5666 5661 5655 5648 5641 5633 5625 5617 5609 5601 5592
5785 5785 5786 5786 5786 5787 5788 5792 5791 5792 5792 5791 5791 5791 5791 5790 5788 5787 5784 5780 5776 5772 5768 5764 5759 5754 5747 5740 5732 5724 5715 5707 5698 5690 5682 5675 5669 5663 5657 5651 5645 5638 5630 5622 5613 5605 5596 5588 5580